Aktuell
News
Messwerte
Diagramme
Archiv
Wettervorhersage
Regen
Wettergefahren

Astro & Geo
Health
Pegel
Gästebuch
Kontakt
Impressum
Datenschutz
App

Wolkig bei 17.4 °C – Luftdruck: 1012.6 hPa – Wind: SSW 3.2 km/h
Messwerte von 11:09 Uhr; Warnsymbol: Datenbasis DWD; Wetterzustand powered by
Übersicht
Heute
Gestern
Vor 1 Jahr
Info
Heute – Der Tag im Rückblick
 
Messwerte von Donnerstag, 22.10.2020
Symbol
Zeitpunkt
Wetter-
zustand
Zeitpunkt
Temperatur
gefühlt
Zeitpunkt
Luftfeuchte
Taupunkt
Zeitpunkt
Luftdruck
Zeitpunkt
Wind
Zeitpunkt
Windböen
Max 15 Min.
Wind-
richtung
Zeitpunkt
Regen
Summe 1 h
Regenrate
Max 15 Min.
UV-Index
Max 15 Min.
Pegel Köln
Zeitpunkt
Warnlage
Zeitpunkt
00:15 Leicht bewölkt2 16.9 °C
16.9 °C
74 %
12.1 °C
1008.4 hPa 3.2 km/h
1 Bft
16.2 km/h
3 Bft
SSO -
0.0 mm/h
0.0 203 cm
00:30 Leicht bewölkt2 16.7 °C
16.7 °C
75 %
12.1 °C
1008.5 hPa 4.7 km/h
1 Bft
13.0 km/h
3 Bft
SO -
0.0 mm/h
0.0 202 cm
00:45 Leicht bewölkt2 16.8 °C
16.8 °C
75 %
12.2 °C
1008.8 hPa 3.2 km/h
1 Bft
16.2 km/h
3 Bft
SSW -
0.0 mm/h
0.0 202 cm
01:00 Leicht bewölkt2 17.0 °C
17.0 °C
74 %
12.2 °C
1008.9 hPa 3.2 km/h
1 Bft
11.2 km/h
2 Bft
SO 0.00 mm
0.0 mm/h
0.0 203 cm
01:15 Leicht bewölkt3 16.8 °C
16.8 °C
75 %
12.2 °C
1009.1 hPa 1.4 km/h
1 Bft
9.7 km/h
2 Bft
SO -
0.0 mm/h
0.0 202 cm
01:30 Leicht bewölkt3 16.8 °C
16.8 °C
75 %
12.2 °C
1009.2 hPa 3.2 km/h
1 Bft
9.7 km/h
2 Bft
SSO -
0.0 mm/h
0.0 202 cm
01:45 Wolkig3 16.8 °C
16.8 °C
75 %
12.2 °C
1009.4 hPa 1.4 km/h
1 Bft
11.2 km/h
2 Bft
SO -
0.0 mm/h
0.0 202 cm
02:00 Wolkig3 16.7 °C
16.7 °C
75 %
12.1 °C
1009.4 hPa 3.2 km/h
1 Bft
9.7 km/h
2 Bft
SSO 0.00 mm
0.0 mm/h
0.0 202 cm
02:15 Wolkig3 16.8 °C
16.8 °C
75 %
12.2 °C
1009.4 hPa 3.2 km/h
1 Bft
11.2 km/h
2 Bft
S -
0.0 mm/h
0.0 202 cm
02:30 Leicht bewölkt3 16.8 °C
16.8 °C
75 %
12.2 °C
1009.6 hPa 3.2 km/h
1 Bft
11.2 km/h
2 Bft
SSO -
0.0 mm/h
0.0 202 cm
02:45 Leicht bewölkt3 16.8 °C
16.8 °C
75 %
12.2 °C
1009.7 hPa 3.2 km/h
1 Bft
9.7 km/h
2 Bft
SSW -
0.0 mm/h
0.0 202 cm
03:00 Leicht bewölkt2 16.7 °C
16.7 °C
75 %
12.1 °C
1009.9 hPa 3.2 km/h
1 Bft
9.7 km/h
2 Bft
SSW 0.00 mm
0.0 mm/h
0.0 202 cm
03:15 Leicht bewölkt2 16.6 °C
16.6 °C
76 %
12.2 °C
1009.8 hPa 3.2 km/h
1 Bft
7.9 km/h
2 Bft
SW -
0.0 mm/h
0.0 202 cm
03:30 Leicht bewölkt2 16.3 °C
16.3 °C
77 %
12.1 °C
1010.0 hPa 1.4 km/h
1 Bft
6.5 km/h
2 Bft
SO -
0.0 mm/h
0.0 202 cm
03:45 Leicht bewölkt3 16.3 °C
16.3 °C
78 %
12.3 °C
1010.0 hPa 1.4 km/h
1 Bft
7.9 km/h
2 Bft
SSO -
0.0 mm/h
0.0 202 cm
04:00 Wolkig3 16.2 °C
16.2 °C
78 %
12.3 °C
1009.9 hPa 3.2 km/h
1 Bft
11.2 km/h
2 Bft
SSO 0.00 mm
0.0 mm/h
0.0 202 cm
04:15 Leicht bewölkt2 16.0 °C
16.0 °C
79 %
12.3 °C
1009.9 hPa 3.2 km/h
1 Bft
9.7 km/h
2 Bft
SSO -
0.0 mm/h
0.0 202 cm
04:30 Wolkig3 15.5 °C
15.5 °C
80 %
12.0 °C
1009.9 hPa 1.4 km/h
1 Bft
7.9 km/h
2 Bft
SO -
0.0 mm/h
0.0 202 cm
04:45 Wolkig3 15.5 °C
15.5 °C
81 %
12.2 °C
1010.0 hPa 1.4 km/h
1 Bft
9.7 km/h
2 Bft
SO -
0.0 mm/h
0.0 202 cm
05:00 Stark bewölkt3 15.4 °C
15.4 °C
81 %
12.1 °C
1010.2 hPa 1.4 km/h
1 Bft
7.9 km/h
2 Bft
SSO 0.00 mm
0.0 mm/h
0.0 202 cm
05:15 Wolkig3 15.3 °C
15.3 °C
82 %
12.1 °C
1010.2 hPa 3.2 km/h
1 Bft
9.7 km/h
2 Bft
SSO -
0.0 mm/h
0.0 202 cm
05:30 Wolkig3 15.3 °C
15.3 °C
82 %
12.1 °C
1010.4 hPa 3.2 km/h
1 Bft
11.2 km/h
2 Bft
SSO -
0.0 mm/h
0.0 202 cm
05:45 Wolkig3 15.3 °C
15.3 °C
82 %
12.1 °C
1010.2 hPa 3.2 km/h
1 Bft
11.2 km/h
2 Bft
SO -
0.0 mm/h
0.0 202 cm
06:00 Wolkig3 15.5 °C
15.5 °C
82 %
12.3 °C
1010.2 hPa 3.2 km/h
1 Bft
13.0 km/h
3 Bft
SSO 0.00 mm
0.0 mm/h
0.0 202 cm
06:15 Wolkig3 15.8 °C
15.8 °C
81 %
12.4 °C
1010.2 hPa 3.2 km/h
1 Bft
13.0 km/h
3 Bft
SO -
0.0 mm/h
0.0 202 cm
06:30 Bedeckt2 15.8 °C
15.8 °C
81 %
12.4 °C
1010.1 hPa 3.2 km/h
1 Bft
11.2 km/h
2 Bft
S -
0.0 mm/h
0.0 202 cm
06:45 Bedeckt2 15.8 °C
15.8 °C
81 %
12.4 °C
1010.3 hPa 3.2 km/h
1 Bft
9.7 km/h
2 Bft
SO -
0.0 mm/h
0.0 202 cm
07:00 Stark bewölkt3 15.6 °C
15.6 °C
82 %
12.4 °C
1010.4 hPa 4.7 km/h
1 Bft
16.2 km/h
3 Bft
SO 0.00 mm
0.0 mm/h
0.0 202 cm
07:15 Tröpfeln4 15.5 °C
15.5 °C
83 %
12.5 °C
1010.4 hPa 6.5 km/h
2 Bft
16.2 km/h
3 Bft
SSO -
0.0 mm/h
0.0 203 cm
07:30 Bedeckt2 15.3 °C
15.3 °C
85 %
12.7 °C
1010.6 hPa 6.5 km/h
2 Bft
17.6 km/h
3 Bft
SSO -
0.0 mm/h
0.0 202 cm
07:45 Bedeckt2 15.2 °C
15.2 °C
86 %
12.8 °C
1010.6 hPa 4.7 km/h
1 Bft
14.4 km/h
3 Bft
SO -
0.0 mm/h
0.0 202 cm
08:00 Bedeckt2 15.0 °C
15.0 °C
86 %
12.6 °C
1010.5 hPa 4.7 km/h
1 Bft
13.0 km/h
3 Bft
SO 0.00 mm
0.0 mm/h
0.0 202 cm
08:15 Bedeckt2 15.0 °C
15.0 °C
87 %
12.8 °C
1010.5 hPa 6.5 km/h
2 Bft
13.0 km/h
3 Bft
SSO -
0.0 mm/h
0.0 202 cm
08:30 Wolkig3 15.0 °C
15.0 °C
87 %
12.8 °C
1010.7 hPa 6.5 km/h
2 Bft
14.4 km/h
3 Bft
OSO -
0.0 mm/h
0.0 202 cm
08:45 Bedeckt2 15.1 °C
15.1 °C
88 %
13.0 °C
1011.0 hPa 3.2 km/h
1 Bft
7.9 km/h
2 Bft
OSO -
0.0 mm/h
0.0 202 cm
09:00 Leichter Regen4 15.2 °C
15.2 °C
87 %
13.0 °C
1011.2 hPa 4.7 km/h
1 Bft
11.2 km/h
2 Bft
SO 0.00 mm
0.0 mm/h
0.0 202 cm
09:15 Wolkig3 15.4 °C
15.4 °C
86 %
13.0 °C
1011.5 hPa 6.5 km/h
2 Bft
14.4 km/h
3 Bft
SO -
0.0 mm/h
0.0 202 cm
09:30 Leicht bewölkt2 15.7 °C
15.7 °C
85 %
13.1 °C
1011.7 hPa 4.7 km/h
1 Bft
14.4 km/h
3 Bft
SO -
0.0 mm/h
0.0 203 cm
09:45 Leicht bewölkt2 15.8 °C
15.8 °C
85 %
13.2 °C
1011.9 hPa 3.2 km/h
1 Bft
7.9 km/h
2 Bft
S -
0.0 mm/h
0.0 202 cm
10:00 Leicht bewölkt2 15.8 °C
15.8 °C
84 %
13.0 °C
1012.2 hPa 6.5 km/h
2 Bft
11.2 km/h
2 Bft
OSO 0.00 mm
0.0 mm/h
0.0 202 cm
10:15 Leicht bewölkt2 16.1 °C
16.1 °C
84 %
13.3 °C
1012.3 hPa 3.2 km/h
1 Bft
14.4 km/h
3 Bft
S -
0.0 mm/h
0.0 202 cm
10:30 Leicht bewölkt2 16.5 °C
16.5 °C
82 %
13.3 °C
1012.5 hPa 4.7 km/h
1 Bft
13.0 km/h
3 Bft
SSW -
0.0 mm/h
0.0 202 cm
10:45 Wolkig2 16.7 °C
16.7 °C
81 %
13.3 °C
1012.5 hPa 4.7 km/h
1 Bft
16.2 km/h
3 Bft
SW -
0.0 mm/h
0.0 202 cm
11:00 Wolkig2 16.9 °C
16.9 °C
80 %
13.3 °C
1012.6 hPa 3.2 km/h
1 Bft
16.2 km/h
3 Bft
SSO
0.0 mm/h
0.9 -- cm




-
-- cm




-
-- cm




-
-- cm





-- cm




-
-- cm




-
-- cm




-
-- cm





-- cm




-
-- cm




-
-- cm




-
-- cm





-- cm




-
-- cm




-
-- cm




-
-- cm





-- cm




-
-- cm




-
-- cm




-
-- cm





-- cm




-
-- cm




-
-- cm




-
-- cm





-- cm




-
-- cm




-
-- cm




-
-- cm





-- cm




-
-- cm




-
-- cm




-
-- cm





-- cm




-
-- cm




-
-- cm




-
-- cm





-- cm




-
-- cm




-
-- cm




-
-- cm





-- cm




-
-- cm




-
-- cm




-
-- cm





-- cm




-
-- cm




-
-- cm




-
-- cm





-- cm




-
-- cm




-
-- cm




-
-- cm





-- cm
Messwerte stehen ab 00:15 Uhr zur Verfügung.
Aus technischen Gründen wird die Niederschlagssumme der vorangegangenen Stunde erst um :30 der Folgestunde aktualisiert. Die Pegelstände werden ab 01:45 Uhr 15 Minuten zeitversetzt aktualisiert. Datenbasis Wetterzustand: ¹ Wetterstation Köln-Nippes (Stellwerk), ² powered by , ³ powered by OpenWeatherMap, CC BY-SA 4.0; Warnlage: DWD, Pegelonline, LANUV; Pegel Köln: Pegelonline
 
Extrem- und Durchschnittswerte
  Temperatur Luftfeuchte Luftdruck Wind Windböen Wind-
richtung
Regen UV-Index Pegel Köln KKT
Min

Max

Ø
15.0 °C
07:55 Uhr
17.8 °C
00:00 Uhr
16.0 °C
71.0 %
00:00 Uhr
88.0 %
08:36 Uhr
80.3 %
1008.2 hPa
00:00 Uhr
1012.7 hPa
11:00 Uhr
1010.3 hPa
 
 
7.9 km/h
07:29 Uhr
3.6 km/h
 
 
17.6 km/h
07:17 Uhr
 
 
 
SSO
 
 
 
 
0.00 mm
 
 
 
 
1.4
10:59 Uhr
 
202 cm
00:30 Uhr
203 cm
00:15 Uhr
 
  gefühlt Taupunkt   Wind Windböen   Regenrate Ozon Sonne Mond
Min

Max

Ø
14.2 °C
08:24 Uhr
17.8 °C
00:00 Uhr
 
12.0 °C
00:10 Uhr
13.6 °C
11:01 Uhr
12.5 °C
   
 
2 Bft
07:29 Uhr
3.6 km/h
 
 
3 Bft
07:17 Uhr
 
   
 
0.0 mm/h
00:00 Uhr
 
 
Chorweiler
67 μg/m³
01:00 Uhr
 
▲ 08:08 Uhr
▼ 18:25 Uhr
▲ 15:00 Uhr
▼ 22:42 Uhr
KKT = Klimatologischer Kenntag: ET = Eistag, FT = Frosttag, KT = Kalter Tag, ST = Sommertag, HT = Hitzetag, TN = Tropennacht, NT = Niederschlagstag, SH = Schneehöhe (Max Tag); Datenbasis Ozon: LANUV, Land NRW, dl-de/by-2-0
 
Detaillierte Warnlage
















22.10.20

22.10.20

22.10.20

22.10.20

22.10.20

22.10.20

22.10.20
Datenbasis: DWD, Pegelonline, LANUV